Temp
-9 -9 -9 -9 -8 -8 -8 -8 -10 -8 -8 -8 -8 -8 -8 -8 -8 -8 -7 -7 -7 -7 -7 -7 -8 -8 -8 -8 -8 -9 -9 -9 -9 -9 -9 -9 -9 -10 -10 -11 -11 -11 -11 -11 -11 -11 -11 -11 -11
-9 -9 -9 -9 -8 -8 -8 -10 -10 -9 -9 -8 -8 -8 -8 -8 -8 -8 -7 -7 -7 -7 -7 -8 -8 -8 -8 -9 -9 -9 -9 -9 -9 -9 -9 -9 -10 -10 -11 -11 -11 -12 -12 -12 -12 -12 -11 -11 -11
-10 -10 -9 -9 -9 -8 -9 -11 -11 -9 -8 -9 -8 -8 -8 -8 -8 -8 -7 -7 -7 -7 -8 -7 -8 -8 -9 -9 -9 -9 -9 -9 -9 -9 -9 -9 -10 -11 -11 -11 -11 -12 -12 -12 -12 -12 -12 -12 -12
-10 -10 -10 -9 -9 -9 -10 -11 -11 -10 -8 -9 -9 -8 -8 -8 -8 -8 -7 -8 -7 -8 -8 -8 -8 -9 -9 -9 -9 -9 -10 -9 -10 -10 -10 -10 -10 -11 -11 -12 -11 -12 -12 -13 -13 -13 -12 -12 -12
-10 -10 -10 -9 -9 -10 -10 -10 -10 -10 -9 -9 -9 -9 -9 -8 -8 -8 -7 -7 -7 -8 -9 -9 -9 -9 -9 -9 -9 -10 -10 -10 -10 -10 -10 -10 -11 -11 -11 -11 -12 -12 -12 -12 -13 -13 -12 -12 -12
-10 -11 -10 -9 -10 -10 -10 -11 -10 -10 -10 -9 -9 -9 -9 -8 -9 -8 -7 -8 -8 -8 -9 -9 -9 -9 -9 -9 -10 -10 -10 -10 -10 -10 -11 -11 -11 -12 -12 -12 -12 -13 -13 -12 -13 -13 -13 -13 -12
-10 -10 -10 -10 -10 -11 -13 -10 -10 -11 -10 -10 -10 -9 -9 -8 -8 -8 -8 -8 -8 -8 -9 -9 -9 -9 -10 -10 -10 -10 -10 -11 -11 -11 -11 -11 -12 -12 -12 -12 -12 -12 -12 -12 -13 -13 -13 -13 -12
-11 -11 -10 -10 -10 -10 -13 -10 -11 -11 -11 -11 -10 -9 -9 -8 -8 -9 -8 -8 -8 -9 -9 -9 -10 -10 -10 -10 -10 -11 -11 -11 -11 -11 -11 -11 -12 -12 -12 -12 -12 -12 -13 -13 -12 -13 -12 -13 -12
-11 -10 -10 -10 -11 -11 -11 -10 -11 -11 -11 -10 -10 -9 -9 -8 -8 -9 -9 -9 -9 -9 -9 -10 -10 -10 -10 -11 -11 -11 -11 -11 -12 -11 -11 -11 -12 -12 -12 -12 -12 -11 -12 -12 -12 -12 -12 -12 -13
-11 -10 -10 -11 -11 -11 -11 -11 -12 -11 -10 -11 -10 -9 -9 -8 -8 -8 -9 -9 -9 -9 -10 -10 -10 -10 -10 -11 -12 -12 -12 -12 -12 -12 -12 -12 -12 -12 -12 -12 -13 -12 -12 -12 -11 -11 -12 -12 -12
-12 -11 -11 -11 -11 -11 -10 -11 -12 -11 -10 -10 -10 -9 -9 -8 -8 -8 -9 -10 -10 -10 -9 -10 -10 -11 -11 -11 -11 -12 -12 -12 -13 -12 -12 -12 -12 -12 -12 -12 -12 -12 -12 -12 -12 -12 -11 -12 -12
-12 -12 -11 -11 -11 -10 -10 -11 -11 -11 -10 -10 -10 -10 -9 -9 -8 -9 -10 -10 -10 -10 -10 -10 -11 -11 -11 -11 -12 -12 -12 -13 -13 -13 -12 -12 -12 -13 -12 -12 -12 -12 -13 -12 -12 -12 -12 -12 -12
-12 -12 -12 -12 -11 -11 -10 -11 -11 -11 -11 -10 -10 -10 -9 -9 -9 -9 -10 -10 -11 -10 -10 -10 -11 -11 -11 -11 -12 -13 -13 -13 -13 -13 -13 -13 -13 -13 -12 -12 -12 -12 -12 -12 -12 -12 -12 -12 -12
-13 -12 -12 -13 -12 -12 -11 -11 -11 -11 -11 -11 -10 -10 -10 -10 -9 -9 -9 -10 -10 -11 -11 -10 -11 -11 -11 -12 -13 -13 -14 -14 -14 -14 -13 -13 -13 -13 -13 -13 -12 -12 -12 -12 -12 -12 -11 -12 -12
-14 -13 -13 -12 -13 -13 -12 -11 -11 -12 -12 -11 -11 -11 -10 -10 -10 -9 -10 -10 -11 -11 -11 -10 -11 -11 -12 -12 -14 -14 -14 -14 -14 -14 -13 -13 -13 -13 -13 -12 -12 -12 -12 -12 -12 -11 -12 -12 -12
-15 -15 -13 -13 -13 -13 -14 -12 -12 -13 -11 -11 -11 -11 -11 -10 -10 -11 -11 -11 -11 -11 -11 -11 -11 -12 -12 -13 -14 -15 -15 -14 -14 -14 -14 -14 -14 -13 -13 -12 -12 -13 -12 -12 -12 -12 -12 -12 -12
-16 -14 -16 -15 -14 -13 -14 -13 -13 -13 -11 -12 -11 -11 -11 -11 -11 -11 -11 -11 -11 -11 -11 -11 -11 -12 -13 -14 -15 -15 -15 -15 -14 -14 -14 -14 -13 -13 -12 -12 -12 -12 -12 -12 -12 -12 -12 -12 -12
-17 -16 -16 -17 -16 -14 -14 -13 -13 -13 -12 -12 -12 -11 -12 -12 -12 -12 -11 -12 -11 -11 -11 -11 -11 -12 -14 -15 -15 -15 -15 -15 -15 -14 -14 -14 -13 -14 -13 -12 -12 -12 -12 -12 -12 -12 -12 -12 -12
-18 -18 -16 -17 -17 -16 -14 -14 -13 -13 -12 -12 -13 -12 -12 -12 -12 -12 -11 -11 -11 -11 -11 -12 -12 -12 -14 -15 -16 -15 -15 -15 -15 -14 -14 -14 -14 -13 -13 -13 -12 -12 -13 -12 -12 -12 -12 -12 -12
-18 -18 -17 -18 -18 -17 -15 -14 -14 -13 -13 -13 -13 -13 -12 -12 -12 -11 -12 -11 -12 -11 -11 -12 -11 -12 -15 -16 -16 -15 -15 -15 -14 -14 -14 -14 -13 -13 -13 -13 -13 -13 -13 -13 -12 -12 -12 -12 -12
-17 -18 -19 -19 -19 -18 -16 -14 -14 -15 -13 -14 -13 -13 -13 -12 -12 -12 -12 -12 -12 -11 -11 -12 -12 -13 -15 -16 -15 -15 -15 -15 -14 -14 -14 -14 -14 -13 -13 -13 -13 -13 -13 -12 -12 -12 -12 -12 -12
-17 -19 -21 -21 -20 -18 -17 -16 -17 -16 -14 -14 -14 -14 -13 -12 -12 -12 -12 -12 -12 -11 -12 -12 -13 -13 -15 -15 -15 -15 -15 -14 -14 -14 -14 -14 -14 -13 -13 -13 -12 -12 -13 -13 -13 -12 -12 -12 -12
-18 -19 -20 -20 -19 -19 -19 -18 -16 -16 -16 -15 -14 -13 -13 -12 -12 -12 -12 -12 -12 -11 -12 -12 -13 -14 -14 -15 -15 -15 -15 -14 -14 -14 -14 -13 -14 -13 -13 -13 -12 -12 -13 -13 -12 -12 -12 -12 -12
-20 -19 -20 -20 -20 -19 -17 -18 -18 -17 -16 -15 -14 -14 -13 -12 -12 -12 -12 -12 -12 -12 -12 -13 -14 -14 -14 -15 -15 -15 -15 -14 -14 -14 -14 -13 -13 -13 -13 -12 -12 -12 -13 -12 -12 -12 -12 -12 -12
-20 -20 -20 -20 -19 -17 -19 -18 -18 -18 -17 -15 -14 -13 -13 -13 -12 -12 -12 -12 -12 -11 -13 -13 -14 -14 -15 -15 -16 -15 -15 -14 -14 -14 -13 -13 -13 -13 -12 -12 -12 -12 -12 -12 -13 -13 -13 -12 -12
-20 -20 -21 -20 -19 -19 -19 -18 -18 -18 -17 -16 -15 -14 -13 -12 -12 -12 -12 -12 -12 -12 -14 -14 -14 -14 -15 -15 -15 -15 -15 -14 -14 -14 -13 -13 -13 -13 -12 -12 -12 -12 -12 -12 -12 -12 -13 -12 -13
-21 -20 -20 -19 -18 -18 -17 -18 -18 -18 -16 -16 -15 -14 -13 -13 -13 -12 -13 -13 -13 -14 -14 -14 -15 -15 -15 -15 -15 -15 -14 -14 -14 -14 -14 -13 -13 -13 -12 -12 -12 -12 -12 -12 -13 -13 -13 -13 -13
-21 -21 -21 -20 -20 -20 -19 -18 -17 -17 -16 -16 -15 -14 -14 -13 -13 -13 -13 -14 -14 -14 -15 -15 -15 -15 -15 -15 -15 -15 -14 -15 -14 -14 -14 -13 -13 -13 -13 -12 -12 -12 -12 -12 -13 -13 -13 -13 -13
-20 -20 -20 -20 -20 -20 -18 -18 -18 -17 -17 -16 -15 -15 -15 -14 -14 -14 -14 -14 -14 -15 -16 -16 -15 -15 -15 -15 -15 -15 -15 -15 -14 -14 -14 -13 -13 -13 -12 -12 -12 -12 -12 -13 -13 -13 -14 -13 -13
-22 -21 -20 -20 -19 -20 -19 -17 -17 -17 -17 -16 -16 -15 -15 -14 -14 -14 -15 -15 -15 -16 -16 -16 -15 -15 -15 -16 -15 -15 -15 -15 -15 -14 -14 -13 -14 -13 -13 -13 -13 -13 -13 -13 -12 -13 -13 -13 -13
Height
5827 5827 5828 5829 5832 5830 5832 5835 5834 5834 5835 5835 5838 5838 5838 5838 5837 5837 5833 5833 5833 5833 5831 5830 5829 5828 5828 5826 5825 5823 5822 5821 5821 5820 5819 5818 5817 5815 5813 5813 5813 5813 5813 5813 5815 5816 5818 5821 5823
5820 5821 5822 5823 5824 5824 5827 5829 5828 5829 5826 5830 5831 5832 5833 5832 5830 5830 5829 5828 5828 5829 5827 5826 5825 5824 5823 5822 5821 5820 5819 5817 5816 5816 5815 5814 5813 5812 5811 5810 5810 5811 5811 5812 5811 5813 5815 5817 5820
5812 5812 5814 5815 5815 5817 5821 5828 5822 5820 5819 5823 5825 5826 5826 5826 5825 5824 5824 5823 5824 5824 5823 5821 5820 5819 5819 5817 5816 5815 5814 5813 5812 5811 5811 5809 5809 5809 5809 5808 5807 5808 5808 5808 5809 5809 5812 5814 5817
5804 5805 5805 5805 5809 5812 5813 5817 5810 5814 5812 5816 5817 5819 5819 5817 5819 5819 5820 5819 5819 5820 5818 5816 5815 5814 5814 5813 5812 5811 5810 5809 5808 5807 5807 5805 5805 5805 5804 5805 5804 5804 5806 5805 5807 5809 5810 5811 5814
5795 5796 5796 5798 5802 5803 5804 5806 5804 5808 5805 5808 5810 5813 5812 5810 5812 5813 5814 5813 5814 5815 5813 5812 5810 5810 5810 5809 5807 5806 5805 5804 5804 5803 5803 5801 5801 5801 5802 5800 5800 5800 5801 5802 5803 5807 5808 5809 5811
5786 5788 5788 5791 5794 5796 5796 5796 5799 5799 5798 5801 5803 5805 5804 5803 5805 5805 5807 5807 5808 5809 5808 5807 5806 5805 5805 5804 5802 5801 5801 5800 5799 5799 5798 5797 5795 5796 5796 5796 5796 5795 5796 5798 5800 5801 5803 5805 5807
5779 5778 5781 5783 5786 5786 5789 5784 5790 5791 5793 5793 5794 5796 5797 5794 5797 5799 5800 5800 5801 5803 5803 5802 5802 5800 5800 5799 5797 5796 5796 5795 5794 5794 5794 5792 5791 5793 5792 5792 5792 5792 5794 5794 5795 5796 5797 5801 5804
5771 5770 5771 5775 5776 5778 5780 5774 5783 5784 5786 5786 5785 5786 5790 5785 5791 5792 5793 5793 5796 5797 5798 5798 5797 5796 5795 5793 5792 5791 5791 5790 5789 5789 5788 5787 5786 5787 5788 5786 5787 5787 5789 5788 5791 5792 5793 5797 5801
5762 5761 5763 5767 5766 5769 5766 5769 5774 5776 5776 5776 5776 5777 5777 5780 5784 5785 5785 5787 5789 5791 5792 5794 5792 5790 5788 5786 5785 5785 5785 5785 5785 5784 5783 5782 5782 5782 5782 5782 5779 5779 5782 5783 5785 5788 5790 5793 5797
5750 5753 5758 5757 5757 5756 5754 5763 5764 5766 5766 5768 5765 5767 5770 5773 5775 5777 5778 5780 5782 5784 5785 5788 5786 5784 5782 5781 5779 5780 5779 5779 5779 5779 5779 5778 5777 5777 5777 5777 5776 5776 5776 5778 5779 5783 5786 5789 5793
5741 5743 5747 5746 5744 5743 5746 5750 5753 5754 5756 5758 5758 5758 5763 5765 5767 5769 5771 5773 5775 5777 5778 5781 5781 5777 5776 5775 5774 5774 5774 5773 5773 5773 5772 5772 5771 5773 5772 5772 5771 5771 5772 5771 5774 5775 5780 5784 5786
5727 5731 5733 5734 5734 5732 5737 5739 5742 5745 5746 5746 5748 5750 5754 5756 5759 5762 5764 5766 5768 5768 5771 5773 5773 5771 5770 5769 5768 5767 5767 5768 5768 5767 5766 5766 5765 5766 5766 5765 5765 5765 5767 5767 5770 5772 5775 5778 5781
5717 5719 5720 5722 5722 5722 5725 5728 5733 5736 5736 5737 5739 5744 5746 5749 5751 5754 5757 5760 5761 5761 5763 5764 5765 5766 5765 5764 5762 5761 5760 5761 5761 5761 5760 5759 5758 5759 5760 5759 5760 5760 5761 5763 5765 5766 5770 5772 5777
5703 5706 5707 5709 5712 5712 5713 5718 5721 5727 5726 5729 5732 5736 5737 5740 5743 5746 5750 5752 5753 5755 5756 5756 5757 5758 5758 5757 5756 5754 5753 5754 5754 5753 5753 5752 5751 5752 5755 5754 5755 5754 5755 5759 5760 5763 5763 5768 5772
5688 5691 5694 5700 5701 5703 5703 5708 5713 5717 5718 5718 5722 5727 5730 5732 5735 5739 5742 5744 5746 5747 5748 5747 5749 5749 5749 5748 5748 5747 5746 5747 5748 5747 5745 5745 5746 5746 5747 5747 5749 5747 5750 5754 5757 5758 5762 5766 5768
5676 5677 5680 5687 5689 5693 5692 5701 5703 5705 5707 5710 5713 5718 5722 5726 5729 5731 5733 5735 5736 5738 5739 5740 5742 5741 5740 5739 5739 5739 5739 5740 5741 5740 5738 5739 5739 5738 5739 5741 5742 5742 5745 5749 5753 5756 5760 5764 5765
5662 5664 5667 5673 5677 5680 5683 5688 5693 5694 5698 5702 5706 5710 5714 5718 5720 5723 5725 5725 5726 5728 5729 5731 5732 5732 5730 5730 5731 5732 5733 5733 5733 5732 5732 5732 5732 5731 5731 5734 5736 5738 5741 5744 5747 5751 5757 5759 5762
5653 5653 5656 5659 5669 5667 5674 5678 5683 5685 5689 5694 5699 5703 5706 5710 5712 5713 5715 5716 5717 5719 5720 5722 5722 5723 5722 5722 5723 5724 5725 5726 5725 5725 5725 5725 5725 5724 5724 5726 5729 5732 5736 5738 5742 5747 5751 5753 5756
5637 5639 5642 5651 5657 5656 5662 5669 5672 5677 5680 5687 5690 5694 5697 5699 5702 5704 5706 5708 5710 5711 5712 5713 5713 5714 5714 5716 5717 5717 5718 5718 5717 5719 5718 5719 5717 5718 5718 5720 5723 5728 5729 5734 5737 5741 5746 5749 5752
5629 5629 5633 5639 5645 5648 5655 5659 5663 5666 5671 5676 5681 5684 5687 5690 5693 5696 5698 5699 5701 5702 5704 5704 5704 5703 5707 5708 5709 5709 5711 5710 5711 5712 5712 5711 5711 5711 5713 5714 5716 5720 5723 5728 5730 5736 5740 5743 5747
5620 5620 5625 5630 5636 5640 5645 5650 5655 5658 5660 5667 5672 5676 5679 5682 5684 5687 5689 5691 5693 5694 5696 5696 5695 5695 5699 5700 5701 5703 5704 5704 5705 5705 5705 5704 5704 5704 5706 5708 5709 5712 5717 5719 5726 5731 5734 5738 5743
5610 5612 5617 5620 5626 5632 5636 5640 5645 5648 5652 5657 5661 5666 5669 5672 5675 5678 5680 5682 5684 5685 5688 5688 5687 5688 5691 5693 5695 5697 5698 5698 5699 5699 5698 5697 5697 5697 5699 5701 5702 5705 5710 5715 5719 5725 5730 5734 5739
5603 5604 5607 5613 5617 5620 5627 5632 5642 5643 5644 5647 5652 5656 5659 5663 5666 5669 5671 5674 5676 5677 5679 5680 5679 5681 5684 5687 5689 5691 5692 5692 5694 5693 5692 5691 5690 5690 5691 5693 5695 5697 5702 5707 5713 5718 5723 5728 5734
5595 5597 5601 5606 5611 5611 5621 5627 5634 5639 5633 5640 5644 5648 5651 5653 5657 5659 5662 5665 5667 5668 5671 5671 5673 5675 5678 5681 5684 5685 5686 5687 5688 5687 5686 5684 5685 5683 5684 5682 5687 5690 5696 5702 5707 5712 5717 5722 5729
5587 5591 5598 5601 5602 5606 5618 5620 5628 5627 5627 5634 5637 5639 5642 5646 5648 5650 5653 5656 5657 5659 5661 5664 5667 5669 5672 5676 5678 5680 5682 5683 5683 5682 5681 5679 5678 5676 5675 5675 5680 5685 5690 5696 5701 5706 5712 5717 5723
5579 5586 5591 5600 5604 5609 5611 5614 5619 5617 5623 5625 5628 5631 5634 5637 5640 5642 5645 5647 5650 5651 5655 5658 5661 5664 5667 5670 5673 5676 5677 5679 5678 5677 5676 5674 5672 5670 5668 5669 5672 5678 5684 5689 5694 5699 5706 5712 5717
5572 5577 5587 5590 5595 5601 5604 5608 5609 5613 5614 5618 5621 5624 5626 5629 5632 5635 5637 5640 5641 5645 5649 5653 5656 5659 5662 5665 5669 5672 5674 5674 5673 5673 5671 5668 5666 5664 5664 5666 5670 5674 5679 5684 5690 5696 5701 5707 5713
5569 5574 5579 5585 5591 5595 5601 5608 5606 5606 5608 5610 5613 5615 5618 5621 5625 5628 5631 5632 5636 5641 5645 5649 5651 5655 5658 5661 5665 5668 5669 5669 5669 5669 5667 5665 5662 5659 5659 5661 5664 5667 5673 5679 5686 5691 5697 5701 5707
5562 5568 5574 5579 5586 5592 5599 5603 5598 5600 5602 5605 5607 5609 5611 5614 5619 5622 5624 5627 5631 5636 5640 5644 5647 5650 5654 5657 5660 5663 5665 5665 5665 5665 5663 5661 5658 5654 5654 5656 5658 5662 5668 5675 5680 5687 5692 5697 5704
5559 5564 5569 5574 5581 5585 5590 5594 5593 5592 5597 5599 5601 5603 5605 5606 5612 5615 5618 5622 5627 5632 5636 5639 5642 5646 5650 5653 5656 5659 5661 5661 5661 5661 5659 5658 5655 5652 5653 5654 5656 5662 5667 5673 5679 5685 5689 5695 5699
Wind_Speed
34 33 33 34 35 36 35 31 30 34 31 33 26 26 25 24 24 24 24 24 22 18 18 21 20 20 20 19 19 18 20 22 23 25 26 24 23 23 21 19 17 20 20 21 23 23 22 20 19
39 38 37 37 39 38 36 27 32 30 37 31 31 29 27 26 28 25 26 26 23 18 19 23 23 23 22 21 21 19 20 22 24 26 26 24 21 19 17 16 18 17 18 22 23 23 23 22 21
40 40 42 42 45 44 39 18 36 34 41 34 34 32 30 29 28 28 27 27 24 15 19 23 23 23 22 23 22 21 21 23 25 26 25 24 23 20 20 19 19 19 18 19 22 23 24 24 23
39 41 42 45 43 42 42 31 40 35 41 36 38 35 34 33 29 29 25 27 26 15 19 23 24 24 24 26 25 22 22 24 26 27 26 24 24 25 22 19 20 22 18 21 22 21 21 23 23
42 43 44 44 43 41 42 41 44 35 41 38 39 38 37 36 31 30 29 29 25 16 20 21 24 26 25 25 26 25 24 24 27 28 27 25 25 25 23 23 20 21 21 21 25 24 22 22 25
44 45 46 44 43 43 43 47 41 41 44 41 40 41 42 37 33 33 31 31 24 16 18 20 24 27 26 27 28 25 27 25 26 27 26 24 25 21 21 21 21 20 19 20 20 24 26 26 27
44 47 45 44 43 43 31 50 45 43 43 44 45 44 44 43 35 34 33 31 27 18 17 21 23 27 28 27 29 27 27 27 26 28 26 25 22 18 16 22 22 20 21 24 25 25 26 28 27
45 46 46 45 46 48 39 53 41 42 44 46 47 46 44 44 36 36 34 33 27 22 19 21 23 27 29 29 30 29 28 29 26 26 29 28 27 22 24 25 21 22 25 24 27 26 25 28 26
47 48 44 45 45 46 52 49 41 42 46 49 47 47 46 40 35 37 36 34 28 26 20 19 22 26 29 31 33 30 30 31 28 27 31 30 30 24 22 24 24 20 24 24 27 27 23 29 29
52 50 45 45 46 47 54 44 43 43 49 48 50 47 46 41 37 36 36 32 30 27 24 19 20 25 28 31 34 33 32 32 29 29 32 32 32 28 25 25 24 25 21 29 30 31 31 27 33
50 52 49 51 51 52 50 44 43 43 47 50 51 47 46 41 37 37 35 33 31 30 25 20 19 26 28 32 35 34 34 32 29 30 32 34 33 30 27 25 27 27 28 25 26 27 31 33 32
53 51 53 53 54 55 49 49 45 45 45 49 50 51 47 44 38 36 36 33 32 31 26 22 22 26 29 34 37 37 36 30 29 31 32 34 35 31 28 27 27 30 29 26 30 30 31 27 37
57 55 56 55 56 56 53 50 46 45 48 50 51 49 46 45 41 38 34 33 33 30 26 25 25 26 30 34 37 38 37 32 31 31 34 34 36 32 29 28 29 30 27 22 24 27 30 37 38
60 59 59 60 55 52 53 49 47 45 48 49 48 47 47 46 43 40 33 32 30 29 30 29 28 28 29 34 36 37 37 33 30 31 34 35 35 31 29 28 27 27 25 24 20 22 20 30 37
61 61 61 55 57 56 49 50 46 43 45 49 48 45 46 44 42 33 31 31 29 30 32 31 29 31 30 33 34 35 35 31 29 31 33 33 34 32 30 29 27 24 24 24 21 23 23 21 34
60 63 62 58 57 53 51 50 42 41 45 45 45 42 42 38 36 34 31 31 32 33 32 32 32 30 32 33 32 32 29 31 27 30 30 30 32 32 32 30 27 25 25 26 23 29 26 25 37
57 62 62 54 57 57 50 47 41 44 44 38 40 37 37 37 35 35 33 33 35 35 34 33 33 29 33 33 33 29 30 27 27 28 27 30 31 30 30 29 28 28 30 32 26 29 36 32 41
52 57 62 58 48 55 51 50 42 43 42 37 37 38 38 38 35 36 34 36 36 36 36 34 33 29 34 33 31 28 30 27 27 26 28 30 30 26 23 25 28 30 32 32 29 30 35 33 41
47 53 57 55 43 55 51 49 49 47 47 38 39 39 38 38 37 39 37 38 37 38 36 34 32 33 32 31 29 32 29 27 27 26 29 30 28 28 22 23 30 40 30 29 29 30 34 35 39
44 52 56 47 47 49 44 47 45 45 43 40 37 38 39 39 39 37 37 39 38 37 36 34 36 35 25 29 30 34 28 26 26 27 30 30 27 28 26 28 27 34 34 35 32 34 33 41 43
43 46 46 50 39 44 39 46 40 40 44 39 37 38 41 40 38 37 38 39 38 37 36 33 35 34 26 29 33 31 24 26 25 29 29 27 27 28 30 28 26 34 34 34 39 36 34 40 43
43 41 36 40 44 41 39 41 24 43 45 37 36 35 37 37 37 37 39 38 37 37 35 35 34 34 27 31 32 26 25 24 26 28 27 26 28 27 29 35 32 35 39 38 37 36 37 42 44
38 38 46 46 47 41 40 40 32 33 36 34 32 37 36 37 38 37 37 37 37 38 36 34 36 33 29 32 27 24 24 25 27 27 25 26 27 29 30 30 32 35 35 40 40 39 42 45 47
32 38 37 30 29 36 38 35 20 18 31 32 31 31 35 37 37 37 36 36 36 36 32 34 34 30 28 28 23 23 24 27 27 24 25 26 28 31 30 34 34 41 40 35 32 38 43 45 46
34 36 33 32 36 37 15 27 25 32 39 24 28 35 36 36 36 36 35 34 37 32 31 35 32 28 28 22 23 22 26 26 24 23 25 27 24 25 30 28 33 37 39 36 37 38 42 46 39
35 35 23 19 21 20 24 29 22 37 29 27 29 31 33 34 36 35 32 31 29 29 31 33 28 30 22 25 21 22 24 23 21 22 23 24 22 27 25 25 26 33 36 36 33 40 46 44 34
32 35 28 27 21 25 16 9 26 23 29 29 29 31 33 34 32 30 25 23 26 26 31 30 28 27 24 20 19 22 22 21 19 19 20 21 22 29 20 22 24 31 35 38 33 41 46 43 33
31 28 27 30 29 22 22 15 22 24 26 26 26 28 30 29 28 23 22 25 28 29 29 27 28 25 26 18 20 21 20 18 17 19 19 19 19 23 18 27 28 33 38 39 39 43 37 37 34
31 26 28 28 26 19 13 18 29 27 23 20 24 26 28 29 24 24 25 29 30 29 28 26 25 28 27 18 21 21 19 16 17 19 18 18 17 16 16 24 24 32 37 39 44 40 36 34 35
25 27 24 26 22 27 24 21 16 23 23 23 23 23 27 30 23 26 29 30 31 31 30 29 30 33 30 20 21 20 19 15 15 17 14 13 12 11 11 13 25 22 24 28 37 42 36 30 28
Wind_Direction
258 258 259 259 259 260 261 260 259 260 263 256 250 252 252 258 269 261 277 278 286 296 298 304 306 307 310 312 313 309 305 297 291 292 294 295 289 282 279 278 274 273 268 250 234 224 226 225 222
261 261 259 259 255 258 260 263 254 259 261 259 250 251 256 260 264 269 271 276 280 291 295 301 303 306 309 309 310 310 307 300 294 294 295 291 280 273 273 282 276 270 272 260 241 221 219 214 213
261 259 259 257 257 255 255 252 243 255 258 257 251 248 255 260 260 262 269 274 277 285 294 297 299 304 305 308 310 309 307 302 297 294 292 286 275 267 267 273 273 267 266 264 239 222 212 210 209
261 260 257 257 257 259 255 232 259 250 260 255 253 253 253 258 260 259 269 272 277 286 290 294 295 302 302 309 309 305 303 301 299 296 293 279 270 271 272 271 272 265 262 253 237 225 217 215 212
257 259 259 258 257 257 256 252 251 253 256 253 253 254 257 256 257 256 264 270 274 285 292 291 295 299 304 306 305 304 302 300 299 296 291 281 268 269 273 271 267 262 252 254 236 233 228 223 218
259 256 258 258 260 261 257 257 250 248 252 252 251 253 254 256 254 253 262 269 261 284 287 290 293 296 301 302 302 302 298 296 296 293 290 279 270 269 266 266 266 280 241 247 233 230 233 228 220
258 257 256 257 257 256 256 255 251 251 249 251 251 250 252 252 247 254 259 266 262 279 278 281 288 294 298 298 297 298 292 291 294 291 287 281 275 276 273 264 274 261 255 263 235 233 228 225 216
261 257 255 253 254 256 251 257 254 253 252 251 249 251 252 250 244 252 259 264 260 278 277 283 287 291 295 296 295 295 293 289 292 290 286 280 272 274 277 271 268 262 254 251 224 221 212 212 214
260 259 256 256 255 257 256 259 256 252 249 250 250 249 249 247 249 252 255 261 261 272 279 280 285 289 294 293 294 296 293 290 291 290 285 277 272 270 272 273 271 262 249 235 231 231 223 209 213
256 258 258 257 257 257 258 260 254 252 248 247 251 246 248 250 254 252 256 260 262 272 278 279 281 285 288 289 288 292 290 289 291 290 285 278 267 266 272 275 269 261 257 245 255 241 237 234 222
257 255 256 254 253 254 256 257 253 247 245 244 244 246 247 252 248 254 260 258 263 268 276 278 280 281 285 287 285 288 287 285 288 287 285 278 267 265 265 271 276 267 255 265 252 242 231 232 218
254 253 251 250 253 253 252 254 250 246 241 240 241 246 247 250 248 252 256 257 260 266 271 276 276 277 284 286 284 284 283 282 286 285 282 277 264 262 260 270 274 271 262 260 254 252 218 243 217
254 253 249 252 248 252 252 251 251 247 243 241 241 244 247 249 249 249 250 255 258 264 268 275 276 277 281 284 281 279 280 279 280 280 282 275 266 260 261 267 270 269 253 242 249 238 232 230 222
251 251 253 250 250 250 251 252 250 245 245 245 247 245 245 245 247 247 246 248 254 258 266 275 280 280 281 276 273 273 274 274 280 280 280 272 266 263 261 264 269 261 242 229 234 232 222 220 218
245 245 249 250 249 250 255 248 247 249 245 245 246 245 245 242 244 246 251 252 253 257 264 276 280 283 277 270 269 271 273 274 281 278 277 268 262 262 262 263 263 250 224 223 217 222 220 234 214
255 243 241 244 244 251 249 241 248 247 242 243 244 241 242 242 248 252 252 253 255 260 267 274 281 281 276 269 270 272 275 273 281 279 274 267 263 263 260 258 256 250 223 229 227 233 216 224 217
259 253 241 243 243 243 247 243 242 240 241 243 240 236 238 243 245 251 248 250 258 264 272 277 281 277 267 269 271 273 269 278 283 280 268 266 265 264 258 253 244 240 227 227 223 220 225 226 223
263 259 247 236 246 249 243 236 242 240 237 234 237 242 243 240 245 247 248 255 259 267 273 276 281 280 267 268 270 268 269 279 284 273 268 268 264 258 261 248 237 242 232 230 219 219 223 225 217
259 247 250 237 244 241 238 235 238 240 241 240 242 243 240 242 244 245 250 255 261 265 272 278 280 280 260 267 265 265 269 278 283 268 268 268 261 248 253 245 238 231 233 225 231 221 229 215 222
271 248 246 234 238 247 243 237 237 236 240 243 237 239 241 241 243 245 251 257 261 267 270 276 283 281 255 262 258 263 268 285 275 270 268 269 259 246 249 246 232 234 230 219 230 231 228 225 230
267 255 241 238 236 240 248 238 242 245 242 243 238 235 239 242 245 249 253 257 260 267 271 275 274 268 243 250 251 261 277 278 271 271 272 267 258 251 243 252 245 228 220 227 225 218 222 222 221
256 251 233 238 233 235 241 242 232 242 243 246 244 240 238 242 244 246 250 254 260 266 271 276 265 258 240 247 252 265 279 271 270 268 272 265 261 256 248 245 246 228 216 216 214 225 228 220 221
258 239 234 234 235 225 231 243 228 251 256 248 241 244 247 245 246 247 250 255 260 266 274 268 253 245 237 245 252 269 273 268 264 268 273 268 260 259 257 251 238 217 212 211 221 224 222 222 222
248 239 230 233 230 236 229 235 251 255 253 245 246 248 247 246 246 248 254 259 264 267 271 253 242 237 237 239 254 265 266 263 259 269 271 264 262 265 264 250 231 214 209 210 218 217 216 218 221
231 234 229 235 234 234 228 233 232 233 244 250 240 237 241 245 248 253 258 262 263 264 252 245 237 235 232 242 252 261 260 258 262 269 270 265 268 271 274 231 221 217 220 217 223 224 215 215 219
225 223 205 229 235 244 246 239 237 233 255 247 245 243 242 242 247 252 259 260 265 252 238 236 231 229 231 242 250 250 252 256 262 269 270 270 274 271 251 230 222 217 216 215 228 213 212 217 216
228 215 207 217 201 202 205 213 228 242 246 238 239 243 244 246 250 254 253 252 241 233 231 225 226 228 241 246 241 245 248 258 258 262 268 272 268 265 225 220 224 226 218 222 218 208 213 215 216
213 218 213 211 220 227 226 234 236 255 248 247 241 244 248 252 253 246 242 229 226 228 225 221 229 236 243 240 234 240 249 248 252 258 267 273 257 263 238 222 231 224 217 207 211 212 211 215 213
220 211 206 211 220 213 204 215 229 228 235 243 247 248 255 253 250 237 229 221 224 223 218 227 234 240 240 237 229 239 244 246 257 261 270 284 244 270 224 234 221 203 204 204 201 210 210 217 223
224 218 216 216 216 220 202 202 216 236 244 244 250 251 248 253 241 232 223 218 222 213 218 227 233 239 237 239 228 236 242 243 257 261 266 276 241 260 217 198 190 190 200 212 209 222 213 224 235